Regional Weather Roundup
Issued by NWS

Home | Current Version | Previous Version | Graphics & Text | Print | Product List | Glossary On
Versions: 1 2 3 4 5 6 7 8 9 10 11 12 13 14 15 16 17 18 19 20 21 22 23 24 25 26 27 28 29 30 31 32 33 34 35 36 37 38 39 40 41 42 43 44 45 46 47 48 49 50
000
ASUS43 KLOT 010703
RWRIL

ILLINOIS REGIONAL WEATHER ROUNDUP
NATIONAL WEATHER SERVICE CHICAGO/ROMEOVILLE IL
200 AM CDT SUN MAY 01 2016

NOTE: "FAIR" INDICATES FEW OR NO CLOUDS BELOW 12,000 FEET WITH NO
SIGNIFICANT WEATHER AND/OR OBSTRUCTIONS TO VISIBILITY.

* THESE STATIONS ARE NOT UNDER NWS QUALITY CONTROL. THEY ALSO MAY NOT
  REPORT WEATHER SUCH AS PRECIPITATION OR FOG.

ILZ001-002-007-009-015-016-024-010800-
NORTHWEST ILLINOIS

CITY           SKY/WX    TMP DP  RH WIND       PRES   REMARKS
MOLINE         CLOUDY    47  44  90 NE9       29.91F FOG
STERLING*      CLOUDY    46  45  93 NE8       29.92F
$$

ILZ003-004-008-010-011-017-018-010800-
NORTH CENTRAL ILLINOIS

CITY           SKY/WX    TMP DP  RH WIND       PRES   REMARKS
ROCKFORD       CLOUDY    47  44  90 NE8       29.95F
FREEPORT*      CLOUDY    44  43  98 NE9       29.96F FOG
ROCHELLE*      CLOUDY    46  45  97 NE10      29.93S FOG
DE KALB*       CLOUDY    46  45  97 NE10      29.93S FOG
$$

ILZ005-006-012>014-019>023-010800-
NORTHEAST ILLINOIS

CITY           SKY/WX    TMP DP  RH WIND       PRES   REMARKS
CHICAGO-OHARE  DRIZZLE   45  45 100 NE10      29.91S FOG
CHICAGO-MIDWAY DRIZZLE   47  44  90 NE12      29.90S FOG
AURORA         CLOUDY    47  45  93 NE13      29.91S FOG
LANSING*       CLOUDY    46  46  99 N6        29.89S FOG
WAUKEGAN       CLOUDY    43  43 100 NE13      29.93F FOG
DUPAGE AIRPORT CLOUDY    46  43  89 NE10      29.91S FOG
WHEELING       CLOUDY    45  44  97 NE10      29.93F FOG
NORTHERLY ISL    N/A     45  43  93 NE10        N/A
NORTHERLY ISL    N/A     45  43  93 NE10        N/A
$$

LMZ740>746-010800-
SOUTHERN LAKE MICHIGAN

STATION/POSITION SKY/WX   TEMP    WIND        PRES    VSBY  WAVE
                          AIR SEA DIR/SP/G                  HT/PER
                          (F)     (DEG/KT/KT) (MB)    (MI)  (FT/S)
SOUTHERN BUOY              43 40   60/ 14/ 16 1013.7          3/ 4
HARRISON CRIB              44      50/ 19/ 22   N/A
BURNHAM HARBOR             45      20/ 10/ 16   N/A
CALUMET HARBOR             45      30/ 12/ 16 1011.8F
BURNS HARBOR               48      70/ 11/ 13 1012.5F
MICHIGAN CITY              48      40/  8/ 10   N/A
ST. JOSEPH                 49 48                N/A           2/ 4
$$

ILZ025>027-034>036-040-047-049-050-058-095>099-010800-
WEST-CENTRAL ILLINOIS

CITY           SKY/WX    TMP DP  RH WIND       PRES   REMARKS
QUINCY         FOG       53  52  96 NE8       29.87R VSB 3/4
MACOMB*        FOG       48  48 100 NE10      29.90S VSB 3/4
PITTSFIELD*    FOG       56  56 100 CALM      29.86S VSB 1/4
$$

ILZ028>032-037-038-041>044-048-051>054-059>061-010800-
CENTRAL ILLINOIS

CITY           SKY/WX    TMP DP  RH WIND       PRES   REMARKS
BLOOMINGTON    FOG       50  50 100 NE9       29.88S VSB 1/4
DECATUR        MOCLDY    61  52  72 SW12      29.85R
PEORIA         CLOUDY    49  48  97 NE8       29.87S FOG
LINCOLN*       FOG       53  53 100 N5        29.86R VSB 1/2
SPRINGFIELD    FOG       56  55  97 N7        29.85S VSB 1/2
TAYLORVILLE    NOT AVBL
$$

ILZ033-039-045-046-055>057-062-063-010800-
EAST-CENTRAL ILLINOIS

CITY           SKY/WX    TMP DP  RH WIND       PRES   REMARKS
CHAMPAIGN      FOG       58  57  97 SW7       29.84R VSB 3/4
MATTOON        CLOUDY    61  51  70 CALM      29.84R
$$

ILZ079-100>102-010800-
SOUTHWEST ILLINOIS

CITY           SKY/WX    TMP DP  RH WIND       PRES   REMARKS
ALTON          CLOUDY    56  56  97 S8        29.87R
BELLEVILLE     CLOUDY    58  58 100 S6        29.85S
CAHOKIA*       PTCLDY    59  56  89 S7        29.86R
SPARTA*        RAIN      58  57  96 SE6       29.88F
$$

ILZ064>066-069>071-074>076-080>082-084>086-088>090-092>094-010800-
SOUTH-CENTRAL ILLINOIS

CITY           SKY/WX    TMP DP  RH WIND       PRES   REMARKS
CARBONDALE     CLOUDY    61  55  81 E7        29.89S
EFFINGHAM*     MOCLDY    58  57  95 SE7       29.87F
MT. VERNON     MOCLDY    57  54  88 S3        29.90F
SALEM*         CLOUDY    60  56  87 SE6       29.85F
$$

ILZ067-068-072-073-078-083-087-091-010800-
SOUTHEAST ILLINOIS

CITY           SKY/WX    TMP DP  RH WIND       PRES   REMARKS
LAWRENCEVILLE  LGT RAIN  62  57  83 W14         N/A
FLORA*         RAIN      60  57  89 CALM      29.88F
HARRISBURG*    CLOUDY    60  57  89 N5        29.91R
ROBINSON*      CLOUDY    61  57  87 SW10      29.88R
$$

ABBREVIATIONS USED IN REMARKS
   TC - TEMPERATURE IN CELSIUS
  WCI - WIND CHILL INDEX
   HX - HEAT INDEX
  VSB - VISIBILITY
$$




USA.gov is the U.S. government's official web portal to all federal, state and local government web resources and services.